This demonstration page uses our WeatherBlox Daily Observations layout. Learn more.

40.92945, -100.16068

Hourly Observations for April 3, 2018

Temp ( °F °C ) Dew Point ( °F °C ) Humidity (%) Winds ( mph kmh ) Pressure ( in mb ) Visibility ( mi km ) Precip ( " mm )
12:15 am 00:15 Cloudy with Mist and Fog 32 0 31 -0.6 96 96 ENE 15 24 29.68 1005 1.5 2.41401 0 0
12:35 am 00:35 Cloudy with Mist and Fog 32 0 31 -0.6 96 96 ENE 15 24 29.68 1005 1 1.60934 0 0
12:55 am 00:55 Cloudy with Mist and Fog 32 0 31 -0.6 96 96 ENE 15 24 29.68 1005 0.75 1.207005 0 0
1:15 am 01:15 Cloudy with Mist and Fog 32 0 31 -0.6 96 96 ENE 9 15 29.74 1007 0.75 1.207005 0 0
1:35 am 01:35 Cloudy with Mist and Fog 32 0 31 -0.6 96 96 NE 13 20 29.74 1007 0.75 1.207005 0 0
1:55 am 01:55 Cloudy with Mist and Fog 32 0 31 -0.5 96 96 NNE 10 17 29.77 1008 0.75 1.207005 0 0
2:15 am 02:15 Cloudy with Mist and Fog 32 0 31 -0.5 96 96 N 13 20 29.8 1009 1 1.60934 0 0
2:35 am 02:35 Cloudy with Mist and Fog 32 0 31 -0.6 96 96 NNE 12 19 29.8 1009 1.25 2.011675 0 0
2:55 am 02:55 Cloudy with Mist and Fog 32 0 31 -0.6 96 96 NE 10 17 29.77 1008 1.25 2.011675 0 0
3:15 am 03:15 Cloudy with Mist and Fog 32 0 31 -0.6 96 96 NE 13 20 29.77 1008 1.75 2.816345 0 0
3:35 am 03:35 Cloudy with Mist and Fog 32 0 31 -0.6 96 96 NNE 7 11 29.77 1008 2 3.21868 0 0
3:55 am 03:55 Cloudy with Mist and Fog 32 0 31 -0.3 98 98 N 13 20 29.8 1009 4 6.43736 0 0
4:15 am 04:15 Cloudy with Mist and Fog 32 0.1 32 -0.2 98 98 N 12 19 29.8 1009 4 6.43736 0 0
4:35 am 04:35 Cloudy with Mist and Fog 32 0.2 31 -0.3 96 96 NNE 6 9 29.8 1009 4 6.43736 0 0
4:55 am 04:55 Cloudy with Mist and Fog 33 0.5 32 -0.1 96 96 NNW 10 17 29.83 1010 4 6.43736 0 0
5:15 am 05:15 Cloudy with Mist and Fog 33 0.6 32 0 96 96 NNW 9 15 29.83 1010 4 6.43736 0 0
5:35 am 05:35 Cloudy with Mist and Fog 34 1 32 0 93 93 NNW 13 20 29.85 1011 5 8.0467 0 0
5:55 am 05:55 Cloudy with Light Snow 34 1.1 32 0 92 92 NNW 12 19 29.85 1011 3 4.82802 0 0
6:15 am 06:15 Cloudy with Light Snow 34 1.1 32 0 92 92 NNW 13 20 29.88 1012 7 11.26538 0 0
6:35 am 06:35 Cloudy 34 1.1 32 -0.1 92 92 NNW 16 26 29.88 1012 10 16.0934 0 0
6:55 am 06:55 Cloudy 34 1.1 31 -0.5 89 89 NNW 25 41 29.88 1012 10 16.0934 0 0
7:15 am 07:15 Cloudy 32 -0.2 27 -2.7 83 83 NNW 30 48 29.91 1013 10 16.0934 0 0
7:35 am 07:35 Cloudy 30 -1.1 25 -3.8 82 82 NW 30 48 29.97 1015 10 16.0934 0 0
7:55 am 07:55 Cloudy 29 -1.9 24 -4.5 83 83 NNW 32 52 30.03 1017 10 16.0934 0 0
8:15 am 08:15 Cloudy 27 -2.6 22 -5.5 81 81 NNW 33 54 30.03 1017 10 16.0934 0 0
8:35 am 08:35 Cloudy 27 -2.7 21 -6 78 78 NNW 25 41 30.06 1018 10 16.0934 0 0
8:55 am 08:55 Cloudy 28 -2.5 21 -6 77 77 NNW 28 44 30.06 1018 10 16.0934 0 0
9:15 am 09:15 Cloudy 28 -2.5 21 -6.1 77 77 NNW 26 43 30.09 1019 10 16.0934 0 0
9:35 am 09:35 Cloudy 28 -2.3 20 -6.5 73 73 NNW 32 52 30.15 1021 10 16.0934 0 0
9:55 am 09:55 Cloudy 28 -2.4 19 -7.4 69 69 NW 32 52 30.15 1021 10 16.0934 0 0
10:15 am 10:15 Cloudy 28 -2.5 19 -7.3 70 70 NW 31 50 30.18 1022 10 16.0934 0 0
10:35 am 10:35 Cloudy 28 -2.5 18 -7.7 68 68 NW 32 52 30.18 1022 10 16.0934 0 0
10:55 am 10:55 Cloudy 28 -2.4 18 -7.7 67 67 NNW 29 46 30.18 1022 10 16.0934 0 0
11:15 am 11:15 Mostly Cloudy 28 -2.1 18 -8 64 64 NNW 38 61 30.18 1022 10 16.0934 0 0
11:35 am 11:35 Partly Cloudy 29 -1.6 18 -8 62 62 NNW 36 57 30.15 1021 10 16.0934 0 0
11:55 am 11:55 Mostly Cloudy 30 -1.1 17 -8.1 59 59 NW 37 59 30.18 1022 10 16.0934 0 0
12:15 pm 12:15 Mostly Cloudy 30 -0.9 17 -8.1 59 59 NNW 33 54 30.18 1022 10 16.0934 0 0
12:35 pm 12:35 Partly Cloudy 31 -0.8 17 -8.2 58 58 NNW 31 50 30.18 1022 10 16.0934 0 0
12:55 pm 12:55 Mostly Cloudy 31 -0.4 19 -7.5 59 59 NNW 29 46 30.18 1022 10 16.0934 0 0
1:15 pm 13:15 Partly Cloudy 32 0 17 -8.2 54 54 NNW 32 52 30.21 1023 10 16.0934 0 0
1:35 pm 13:35 Partly Cloudy 33 0.3 18 -7.9 55 55 NW 29 46 30.21 1023 10 16.0934 0 0
1:55 pm 13:55 Sunny 34 1.1 19 -7.4 53 53 NNW 26 43 30.21 1023 10 16.0934 0 0
2:15 pm 14:15 Partly Cloudy 35 1.4 19 -7.3 53 53 NNW 25 41 30.21 1023 10 16.0934 0 0
2:35 pm 14:35 Partly Cloudy 36 2 19 -7 52 52 NNW 29 46 30.18 1022 10 16.0934 0 0
2:55 pm 14:55 Sunny 35 1.9 17 -8.6 46 46 NNW 30 48 30.18 1022 10 16.0934 0 0
3:15 pm 15:15 Sunny 35 1.9 17 -8.2 48 48 N 24 39 30.18 1022 10 16.0934 0 0
3:35 pm 15:35 Sunny 36 2.3 18 -7.9 47 47 N 24 39 30.18 1022 10 16.0934 0 0
3:55 pm 15:55 Sunny 37 2.6 17 -8.3 45 45 NNW 22 35 30.18 1022 10 16.0934 0 0
4:15 pm 16:15 Sunny 37 2.6 17 -8.1 46 46 NNW 23 37 30.18 1022 10 16.0934 0 0
4:35 pm 16:35 Sunny 37 2.5 17 -8.5 44 44 NNW 23 37 30.21 1023 10 16.0934 0 0
4:55 pm 16:55 Sunny 38 3.1 18 -7.8 45 45 NNW 22 35 30.21 1023 10 16.0934 0 0
5:15 pm 17:15 Sunny 37 2.6 16 -8.9 43 43 NNW 22 35 30.21 1023 10 16.0934 0 0
5:35 pm 17:35 Sunny 37 2.6 18 -8 46 46 NNW 20 31 30.21 1023 10 16.0934 0 0
5:55 pm 17:55 Sunny 36 2.4 17 -8.5 45 45 NW 18 30 30.21 1023 10 16.0934 0 0
6:15 pm 18:15 Sunny 36 2.4 17 -8.2 46 46 NNW 20 31 30.21 1023 10 16.0934 0 0
6:35 pm 18:35 Sunny 35 1.9 17 -8.5 46 46 N 14 22 30.21 1023 10 16.0934 0 0
6:55 pm 18:55 Sunny 35 1.5 17 -8.6 47 47 N 14 22 30.24 1024 10 16.0934 0 0
7:15 pm 19:15 Sunny 34 1 17 -8.4 50 50 N 16 26 30.27 1025 10 16.0934 0 0
7:35 pm 19:35 Sunny 32 0.2 17 -8.2 54 54 N 12 19 30.27 1025 10 16.0934 0 0
7:55 pm 19:55 Sunny 31 -0.4 18 -8 57 57 N 10 17 30.27 1025 10 16.0934 0 0
8:15 pm 20:15 Clear 30 -1.2 17 -8.1 60 60 NNE 9 15 30.3 1026 10 16.0934 0 0
8:35 pm 20:35 Clear 28 -2.2 18 -8 65 65 NNE 10 17 30.3 1026 10 16.0934 0 0
8:55 pm 20:55 Clear 27 -2.6 17 -8.1 66 66 NNE 9 15 30.3 1026 10 16.0934 0 0
9:15 pm 21:15 Clear 26 -3.2 17 -8.2 69 69 NE 9 15 30.3 1026 10 16.0934 0 0
9:35 pm 21:35 Clear 26 -3.5 17 -8.3 70 70 NNE 7 11 30.33 1027 10 16.0934 0 0
9:55 pm 21:55 Clear 25 -4 17 -8.3 72 72 NNE 8 13 30.36 1028 10 16.0934 0 0
10:15 pm 22:15 Clear 25 -4.1 17 -8.5 72 72 NNE 10 17 30.36 1028 10 16.0934 0 0
10:35 pm 22:35 Clear 24 -4.5 16 -8.7 73 73 NE 8 13 30.36 1028 10 16.0934 0 0
10:55 pm 22:55 Clear 23 -5 17 -8.6 76 76 NE 5 7 30.39 1029 10 16.0934 0 0
11:15 pm 23:15 Clear 23 -5.1 16 -9 74 74 NNE 9 15 30.39 1029 10 16.0934 0 0
11:35 pm 23:35 Clear 22 -5.5 16 -9.1 76 76 NE 8 13 30.36 1028 10 16.0934 0 0
11:55 pm 23:55 Clear 22 -5.6 15 -9.3 75 75 Calm 30.39 1029 10 16.0934 0 0

Powered by AerisWeather